Location: Neu-Ulm
(48.3873°N, 10.0192°E)
Time: 04:02:43
(UTC+01:00)

Amateur Radio Satellites - All Passes

Search period start: 19 November 2017 03:32
Search period end: 20 November 2017 03:32
Location: Neu-Ulm, 48.3873°N, 10.0192°E

Satellite Date Start Highest point End Downlink Frequencies (MHz)
Time Altitude Azimuth
SO-50 19 Nov 03:37:08 03:38:14 11° 6° (N) 03:39:20 436.795
MOZHAYETS 4 19 Nov 03:41:29 03:45:11 24° 267° (W) 03:48:54
CUBESAT XI-V 19 Nov 03:44:06 03:48:41 83° 255° (WSW) 03:53:20 437.345
Oscar 19 19 Nov 03:50:59 03:54:11 17° 304° (NW) 03:57:23 437.125/150
Gurwin Techsat 1B 19 Nov 03:52:58 03:56:59 22° 301° (WNW) 04:00:59 435.225
ITAMSAT 1 19 Nov 03:56:32 04:01:39 53° 101° (E) 04:06:44 435.822/435.867
nSIGHT-1 19 Nov 03:59:49 04:02:51 40° 212° (SSW) 04:05:52 .
PCSat 19 Nov 04:02:54 04:06:22 17° 334° (NNW) 04:09:51 145.827
DOVE 4 19 Nov 04:06:44 04:09:49 15° 86° (E) 04:12:48 437.250
KKS-1 19 Nov 04:15:54 04:20:17 57° 71° (ENE) 04:24:42 437.445
RS-15 19 Nov 04:21:08 04:33:06 79° 237° (WSW) 04:44:22 29.354- 29.394
YUBILEINY 19 Nov 04:25:42 04:31:36 21° 75° (ENE) 04:37:31 435.215
AO-7 19 Nov 04:26:43 04:35:07 90° 109° (ESE) 04:43:31 .
BEESAT 2 19 Nov 04:29:13 04:33:01 42° 121° (ESE) 04:36:52 435.950
BEESAT 19 Nov 04:34:46 04:35:54 11° 274° (W) 04:37:03 436.000
ISS 19 Nov 04:34:55 04:37:44 27° 217° (SW) 04:40:32 437.550
M-CUBED/EXP-1 PRIME 19 Nov 04:46:12 04:49:26 20° 304° (NW) 04:52:47 437.505
STARS 19 Nov 04:48:15 04:52:32 51° 70° (ENE) 04:56:51 437.465
BEESAT 3 19 Nov 05:02:16 05:05:59 36° 317° (NW) 05:09:44 437.485
STRAND 1 19 Nov 05:11:02 05:13:56 15° 55° (NE) 05:16:49 437.568
CUTE-I 19 Nov 05:11:07 05:12:37 11° 85° (E) 05:14:07 437.470
SO-50 19 Nov 05:16:53 05:20:26 21° 31° (NNE) 05:23:59 436.795
LilacSat-2 19 Nov 05:18:42 05:20:25 13° 89° (E) 05:22:09 437.200
XW-2C 19 Nov 05:20:22 05:21:56 12° 89° (E) 05:23:29 145.795 - 145.815
CUBESAT XI-V 19 Nov 05:26:03 05:26:48 10° 275° (W) 05:27:34 437.345
AO-85 19 Nov 05:26:52 05:30:43 63° 125° (SE) 05:34:47 145.980
XW-2F 19 Nov 05:33:02 05:35:23 16° 91° (E) 05:37:44 145.980 - 146.000
ITAMSAT 1 19 Nov 05:36:33 05:40:48 26° 300° (WNW) 05:45:03 435.822/435.867
DOVE 4 19 Nov 05:42:51 05:48:10 82° 285° (WNW) 05:53:15 437.250
PCSat 19 Nov 05:51:18 05:52:11 10° 0° (N) 05:53:05 145.827
KKS-1 19 Nov 05:54:08 05:57:12 18° 269° (W) 06:00:16 437.445
KAITUO 1B 19 Nov 06:05:05 06:08:19 27° 95° (E) 06:11:34 145.475/437.950
BEESAT 2 19 Nov 06:07:17 06:10:52 29° 321° (NW) 06:14:28 435.950
XW-2D 19 Nov 06:12:36 06:16:17 46° 99° (E) 06:19:57 145.860 - 145.880
YUBILEINY 19 Nov 06:18:17 06:27:03 85° 96° (E) 06:35:55 435.215
AO-7 19 Nov 06:20:19 06:26:58 28° 312° (NW) 06:33:38 .
STARS 19 Nov 06:25:56 06:29:09 19° 268° (W) 06:32:24 437.465
XW-2B 19 Nov 06:27:16 06:31:03 65° 101° (E) 06:34:50 145.730 - 145.750
SEEDS 19 Nov 06:33:36 06:35:38 13° 88° (E) 06:37:41 437.485
RS-15 19 Nov 06:35:11 06:43:29 23° 261° (W) 06:51:33 29.354- 29.394
FO-29 19 Nov 06:35:57 06:41:36 29° 55° (NE) 06:47:42 435.910
BEESAT 3 19 Nov 06:43:30 06:44:39 11° 339° (NNW) 06:45:48 437.485
STRAND 1 19 Nov 06:47:11 06:52:21 85° 75° (ENE) 06:57:33 437.568
CUTE-I 19 Nov 06:48:12 06:53:37 74° 103° (ESE) 06:58:58 437.470
LilacSat-2 19 Nov 06:51:17 06:55:04 61° 287° (WNW) 06:58:51 437.200
XW-2C 19 Nov 06:52:44 06:56:30 62° 286° (WNW) 07:00:16 145.795 - 145.815
NUDT-PHONESAT 19 Nov 06:54:13 06:57:56 86° 280° (W) 07:01:39 437.300
SO-50 19 Nov 06:56:52 07:01:31 87° 51° (NE) 07:06:13 436.795
XW-2F 19 Nov 07:06:06 07:09:45 47° 288° (WNW) 07:13:24 145.980 - 146.000
AO-85 19 Nov 07:08:18 07:11:30 22° 326° (NW) 07:14:51 145.980
HO-68 19 Nov 07:16:44 07:23:48 54° 101° (E) 07:30:47 435.675
DOVE 4 19 Nov 07:22:04 07:24:59 15° 305° (NW) 07:27:52 437.250
ZACube-1 19 Nov 07:24:37 07:26:28 13° 88° (E) 07:28:19 437.345
XW-2A 19 Nov 07:25:33 07:28:00 19° 93° (E) 07:30:27 145.665 - 145.685
UWE-3 19 Nov 07:27:00 07:30:26 24° 93° (E) 07:33:49 435.000/436.395/437.385
CUTE 1.7 + AOD 2 19 Nov 07:31:46 07:36:03 80° 102° (ESE) 07:40:19 437.475
PCSat 19 Nov 07:34:27 07:38:00 17° 27° (NNE) 07:41:31 145.827
KAITUO 1B 19 Nov 07:39:04 07:42:15 27° 293° (WNW) 07:45:26 145.475/437.950
XW-2D 19 Nov 07:47:36 07:50:08 17° 297° (WNW) 07:52:40 145.860 - 145.880
BEESAT 2 19 Nov 07:49:34 07:49:52 10° 343° (NNW) 07:50:10 435.950
CUBEBUG 2 19 Nov 08:00:26 08:04:41 88° 281° (WNW) 08:08:50 437.445
UNISAT 6 19 Nov 08:01:55 08:05:16 21° 62° (ENE) 08:08:35 437.425
XW-2B 19 Nov 08:02:55 08:04:45 13° 299° (WNW) 08:06:34 145.730 - 145.750
TIGRISAT 19 Nov 08:06:58 08:10:22 21° 62° (ENE) 08:13:43 435.000
SEEDS 19 Nov 08:07:34 08:11:48 71° 285° (WNW) 08:16:01 437.485
AO-73 19 Nov 08:15:47 08:19:38 37° 97° (E) 08:23:29 145.935
PRISM 19 Nov 08:16:45 08:17:40 11° 56° (NE) 08:18:36 437.425
YUBILEINY 19 Nov 08:17:59 08:25:03 26° 301° (WNW) 08:32:12 435.215
FO-29 19 Nov 08:19:19 08:25:55 74° 258° (WSW) 08:33:23 435.910
AAUSAT CUBESAT 2 19 Nov 08:22:26 08:26:38 78° 102° (ESE) 08:30:49 437.432
CUTE-I 19 Nov 08:29:14 08:33:07 21° 303° (WNW) 08:36:58 437.470
STRAND 1 19 Nov 08:29:24 08:32:12 15° 272° (W) 08:35:02 437.568
Oscar 11 19 Nov 08:35:07 08:39:14 41° 98° (E) 08:43:19 .
SO-50 19 Nov 08:38:46 08:41:22 15° 250° (WSW) 08:43:59 436.795
XW-2A 19 Nov 08:57:48 09:00:46 30° 291° (WNW) 09:03:44 145.665 - 145.685
ZACube-1 19 Nov 08:59:06 09:03:14 69° 286° (WNW) 09:07:22 437.345
UWE-3 19 Nov 09:03:11 09:06:59 35° 292° (WNW) 09:10:45 435.000/436.395/437.385
HO-68 19 Nov 09:04:50 09:11:18 38° 301° (WNW) 09:17:45 435.675
CUTE 1.7 + AOD 2 19 Nov 09:09:10 09:11:18 14° 301° (WNW) 09:13:25 437.475
PCSat 19 Nov 09:17:15 09:22:36 55° 49° (NE) 09:27:55 145.827
DELFI C3 19 Nov 09:17:53 09:21:16 26° 94° (E) 09:24:37 145.870
Max Valier Satellite 19 Nov 09:22:13 09:24:54 19° 93° (E) 09:27:34 145.860
EO-88 19 Nov 09:26:59 09:29:14 15° 91° (E) 09:31:27 145.990 - 145.960
UNISAT 6 19 Nov 09:37:09 09:41:38 54° 260° (W) 09:46:04 437.425
CUBEBUG 2 19 Nov 09:39:12 09:40:36 11° 303° (WNW) 09:42:00 437.445
TIGRISAT 19 Nov 09:42:14 09:46:43 52° 260° (W) 09:51:08 435.000
PRISM 19 Nov 09:48:05 09:52:12 80° 74° (ENE) 09:56:23 437.425
AO-73 19 Nov 09:52:23 09:55:43 24° 295° (WNW) 09:59:02 145.935
AIST 2D 19 Nov 09:52:47 09:55:37 24° 67° (ENE) 09:58:28 435.315
DUCHIFAT 1 19 Nov 09:55:46 09:56:52 11° 56° (ENE) 09:58:00 145.980
EO-79 19 Nov 09:58:27 10:00:49 15° 59° (ENE) 10:03:11 145.935-145.965
AAUSAT CUBESAT 2 19 Nov 09:59:26 10:01:31 14° 301° (WNW) 10:03:36 437.432
BEESAT 3 19 Nov 10:01:02 10:03:21 15° 28° (NNE) 10:05:38 437.485
NANOSAT C BR1 19 Nov 10:03:27 10:05:48 15° 59° (ENE) 10:08:09 145.865
FO-29 19 Nov 10:08:44 10:12:25 15° 280° (W) 10:16:20 435.910
Oscar 11 19 Nov 10:11:42 10:15:09 24° 296° (WNW) 10:18:36 .
POLYITAN 1 19 Nov 10:12:14 10:15:17 19° 62° (ENE) 10:18:19 437.675
QB50P2 19 Nov 10:34:23 10:38:11 33° 68° (ENE) 10:42:01 145.880/145.840
AO-85 19 Nov 10:34:28 10:35:57 11° 16° (NNE) 10:37:29 145.980
DELFI C3 19 Nov 10:52:27 10:56:02 31° 292° (WNW) 10:59:34 145.870
Max Valier Satellite 19 Nov 10:55:28 10:58:50 35° 290° (WNW) 11:02:12 145.860
HO-68 19 Nov 10:56:15 10:57:03 10° 324° (NW) 10:57:52 435.675
BUGSAT 1 19 Nov 10:57:28 10:59:19 13° 58° (ENE) 11:01:10 437.445
EO-88 19 Nov 10:59:36 11:03:06 44° 289° (WNW) 11:06:35 145.990 - 145.960
ESTCUBE 1 19 Nov 11:00:23 11:03:52 21° 92° (E) 11:07:21 437.505/2401.250
PCSat 19 Nov 11:01:08 11:05:42 28° 250° (WSW) 11:10:15 145.827
BEESAT 2 19 Nov 11:06:05 11:08:55 18° 31° (NNE) 11:11:43 435.950
AIST 2D 19 Nov 11:25:48 11:28:43 25° 265° (W) 11:31:40 435.315
PRISM 19 Nov 11:26:47 11:28:02 11° 272° (W) 11:29:16 437.425
DUCHIFAT 1 19 Nov 11:27:36 11:31:49 81° 76° (ENE) 11:36:03 145.980
EO-79 19 Nov 11:31:48 11:36:02 73° 256° (WSW) 11:40:18 145.935-145.965
LO-87 19 Nov 11:31:55 11:35:27 58° 101° (E) 11:38:56 145.935 - 145.965
NANOSAT C BR1 19 Nov 11:36:45 11:40:59 72° 257° (WSW) 11:45:13 145.865
BEESAT 3 19 Nov 11:37:42 11:41:40 64° 50° (NE) 11:45:33 437.485
POLYITAN 1 19 Nov 11:46:34 11:50:43 51° 260° (W) 11:54:52 437.675
AO-7 19 Nov 11:50:37 11:54:43 15° 34° (NNE) 11:58:49 .
Oscar 19 19 Nov 11:52:43 11:57:03 29° 62° (ENE) 12:01:24 437.125/150
Gurwin Techsat 1B 19 Nov 11:58:34 12:02:51 25° 60° (ENE) 12:07:08 435.225
QB50P2 19 Nov 12:10:21 12:14:00 27° 265° (W) 12:17:40 145.880/145.840
AO-85 19 Nov 12:13:42 12:17:43 31° 39° (NE) 12:22:01 145.980
M-CUBED/EXP-1 PRIME 19 Nov 12:27:47 12:30:02 16° 53° (NE) 12:32:23 437.505
BUGSAT 1 19 Nov 12:29:51 12:34:04 84° 259° (W) 12:38:16 437.445
ESTCUBE 1 19 Nov 12:36:33 12:40:54 47° 290° (WNW) 12:45:15 437.505/2401.250
BEESAT 2 19 Nov 12:43:10 12:47:14 86° 52° (NE) 12:51:14 435.950
SPROUT 19 Nov 12:47:28 12:51:42 64° 101° (ESE) 12:55:55 437.525
DUCHIFAT 1 19 Nov 13:06:41 13:08:02 11° 273° (W) 13:09:24 145.980
LO-87 19 Nov 13:06:45 13:08:24 13° 299° (WNW) 13:10:01 145.935 - 145.965
VELOX 1 19 Nov 13:07:29 13:11:57 65° 102° (ESE) 13:16:22 145.980
O/OREOS (USA 219) 19 Nov 13:09:01 13:11:58 17° 100° (E) 13:14:55 437.305
UKube-1 19 Nov 13:13:37 13:15:27 12° 88° (E) 13:17:16 .
BEESAT 3 19 Nov 13:16:18 13:18:44 16° 248° (WSW) 13:21:09 437.485
Oscar 19 19 Nov 13:31:17 13:36:11 45° 261° (W) 13:41:06 437.125/150
Gurwin Techsat 1B 19 Nov 13:37:13 13:42:27 56° 259° (W) 13:47:43 435.225
AO-7 19 Nov 13:37:44 13:45:28 46° 57° (ENE) 13:53:13 .
ITAMSAT 1 19 Nov 13:40:40 13:44:27 21° 57° (ENE) 13:48:14 435.822/435.867
FALCONSAT 3 19 Nov 13:40:48 13:41:43 11° 185° (S) 13:42:36 435.103
AO-85 19 Nov 13:53:51 13:58:22 53° 237° (WSW) 14:03:13 145.980
M-CUBED/EXP-1 PRIME 19 Nov 14:00:29 14:03:58 57° 254° (WSW) 14:07:45 437.505
DX 1 19 Nov 14:00:33 14:04:54 55° 101° (E) 14:09:12 434.975-435.025
50 SAT 19 Nov 14:00:52 14:04:07 69° 103° (ESE) 14:07:20 437.505
BEESAT 2 19 Nov 14:22:46 14:24:19 12° 250° (WSW) 14:25:51 435.950
SPROUT 19 Nov 14:24:29 14:27:07 16° 300° (WNW) 14:29:44 437.525
YUBILEINY 19 Nov 14:28:56 14:33:07 14° 46° (NE) 14:37:18 435.215
VELOX 1 19 Nov 14:44:59 14:47:55 17° 301° (WNW) 14:50:49 145.980
O/OREOS (USA 219) 19 Nov 14:46:17 14:50:51 64° 298° (WNW) 14:55:28 437.305
UKube-1 19 Nov 14:47:40 14:52:01 78° 285° (WNW) 14:56:20 .
BEESAT 19 Nov 14:49:40 14:53:04 19° 91° (E) 14:56:27 436.000
ITUPSAT 1 19 Nov 14:57:33 15:01:15 22° 93° (E) 15:04:56 437.325
DOVE 4 19 Nov 15:14:56 15:18:55 24° 61° (ENE) 15:23:00 437.250
ITAMSAT 1 19 Nov 15:18:10 15:23:23 71° 257° (WSW) 15:28:39 435.822/435.867
AO-7 19 Nov 15:30:10 15:38:10 51° 259° (WSW) 15:46:14 .
MOZHAYETS 4 19 Nov 15:31:20 15:35:52 60° 101° (E) 15:40:22
CUBESAT XI-V 19 Nov 15:37:28 15:40:49 19° 91° (E) 15:44:10 437.345
DX 1 19 Nov 15:37:34 15:40:42 19° 299° (WNW) 15:43:49 434.975-435.025
LilacSat-2 19 Nov 16:04:51 16:06:14 12° 60° (ENE) 16:07:37 437.200
HO-68 19 Nov 16:05:36 16:09:33 16° 44° (NE) 16:13:30 435.675
XW-2C 19 Nov 16:05:59 16:07:07 11° 59° (ENE) 16:08:15 145.795 - 145.815
NO-84 19 Nov 16:10:18 16:13:46 35° 136° (SE) 16:17:29 435.350 FM
XW-2F 19 Nov 16:17:55 16:19:51 14° 61° (ENE) 16:21:47 145.980 - 146.000
YUBILEINY 19 Nov 16:23:53 16:32:32 53° 72° (ENE) 16:41:06 435.215
UKube-1 19 Nov 16:26:01 16:27:17 11° 305° (NW) 16:28:32 .
BEESAT 19 Nov 16:26:32 16:31:13 58° 289° (WNW) 16:35:52 436.000
O/OREOS (USA 219) 19 Nov 16:29:13 16:31:14 13° 320° (NW) 16:33:16 437.305
ITUPSAT 1 19 Nov 16:34:44 16:39:21 50° 291° (WNW) 16:43:56 437.325
CUTE-I 19 Nov 16:34:57 16:39:28 28° 61° (ENE) 16:44:01 437.470
RS-15 19 Nov 16:48:36 16:49:56 10° 88° (E) 16:51:17 29.354- 29.394
KAITUO 1B 19 Nov 16:48:36 16:51:29 22° 66° (ENE) 16:54:23 145.475/437.950
DOVE 4 19 Nov 16:51:12 16:56:08 59° 260° (W) 17:01:21 437.250
CUTE 1.7 + AOD 2 19 Nov 16:55:11 16:56:35 12° 57° (ENE) 16:58:01 437.475
XW-2D 19 Nov 16:57:06 17:00:33 37° 70° (ENE) 17:04:02 145.860 - 145.880
ITAMSAT 1 19 Nov 17:03:03 17:03:48 10° 275° (W) 17:04:33 435.822/435.867
MOZHAYETS 4 19 Nov 17:09:25 17:12:36 19° 300° (WNW) 17:15:48
XW-2B 19 Nov 17:11:38 17:15:15 52° 73° (ENE) 17:18:56 145.730 - 145.750
CUBESAT XI-V 19 Nov 17:13:57 17:18:32 57° 289° (WNW) 17:23:08 437.345
CUBEBUG 2 19 Nov 17:27:00 17:29:50 16° 60° (ENE) 17:32:35 437.445
SEEDS 19 Nov 17:28:46 17:31:15 15° 60° (ENE) 17:33:44 437.485
LilacSat-2 19 Nov 17:36:12 17:39:57 74° 259° (WSW) 17:43:44 437.200
NUDT-PHONESAT 19 Nov 17:36:13 17:39:50 71° 75° (ENE) 17:43:30 437.300
XW-2C 19 Nov 17:36:59 17:40:43 78° 256° (WSW) 17:44:29 145.795 - 145.815
KKS-1 19 Nov 17:39:18 17:43:46 67° 102° (ESE) 17:48:12 437.445
AAUSAT CUBESAT 2 19 Nov 17:44:14 17:44:56 10° 56° (ENE) 17:45:38 437.432
NO-84 19 Nov 17:47:09 17:51:01 56° 336° (NNW) 17:55:08 435.350 FM
HO-68 19 Nov 17:48:51 17:55:52 58° 65° (ENE) 18:02:54 435.675
XW-2F 19 Nov 17:49:52 17:53:31 59° 260° (W) 17:57:13 145.980 - 146.000
XW-2A 19 Nov 18:01:03 18:02:33 13° 62° (ENE) 18:04:04 145.665 - 145.685
STARS 19 Nov 18:09:47 18:14:09 58° 101° (E) 18:18:28 437.465
CUTE-I 19 Nov 18:14:04 18:19:16 50° 260° (W) 18:24:31 437.470
YUBILEINY 19 Nov 18:21:05 18:29:10 42° 274° (W) 18:37:13 435.215
KAITUO 1B 19 Nov 18:22:00 18:25:19 32° 264° (W) 18:28:40 145.475/437.950
ZACube-1 19 Nov 18:23:30 18:26:23 18° 62° (ENE) 18:29:13 437.345
UWE-3 19 Nov 18:27:02 18:31:00 33° 68° (ENE) 18:34:53 435.000/436.395/437.385
CUTE 1.7 + AOD 2 19 Nov 18:27:32 18:31:44 87° 73° (ENE) 18:35:58 437.475
XW-2D 19 Nov 18:32:10 18:34:52 19° 268° (W) 18:37:36 145.860 - 145.880
RS-15 19 Nov 18:47:34 18:59:05 49° 112° (ESE) 19:10:31 29.354- 29.394
XW-2B 19 Nov 18:47:45 18:49:45 14° 270° (W) 18:51:46 145.730 - 145.750
STRAND 1 19 Nov 18:54:35 18:58:32 22° 91° (E) 19:02:26 437.568
CUBEBUG 2 19 Nov 19:01:21 19:05:57 71° 258° (WSW) 19:10:26 437.445
SEEDS 19 Nov 19:02:19 19:06:27 65° 259° (WSW) 19:10:38 437.485
AO-73 19 Nov 19:14:21 19:18:28 46° 71° (ENE) 19:22:31 145.935
AAUSAT CUBESAT 2 19 Nov 19:15:31 19:19:39 80° 74° (ENE) 19:23:49 437.432
KKS-1 19 Nov 19:16:57 19:19:50 17° 301° (WNW) 19:22:43 437.445
NO-84 19 Nov 19:25:16 19:28:59 32° 358° (N) 19:32:51 435.350 FM
FO-29 19 Nov 19:25:46 19:31:06 19° 83° (E) 19:36:17 435.910
XW-2A 19 Nov 19:31:38 19:34:52 50° 260° (W) 19:38:07 145.665 - 145.685
Oscar 11 19 Nov 19:33:07 19:37:14 49° 71° (ENE) 19:41:25 .
HO-68 19 Nov 19:37:34 19:43:57 33° 266° (W) 19:50:22 435.675
STARS 19 Nov 19:47:01 19:50:05 19° 300° (WNW) 19:53:08 437.465
ZACube-1 19 Nov 19:58:00 20:02:17 58° 260° (W) 20:06:29 437.345
UWE-3 19 Nov 20:03:32 20:07:27 30° 265° (W) 20:11:18 435.000/436.395/437.385
Max Valier Satellite 19 Nov 20:04:55 20:07:12 16° 63° (ENE) 20:09:28 145.860
DELFI C3 19 Nov 20:06:31 20:09:46 25° 66° (ENE) 20:13:02 145.870
CUTE 1.7 + AOD 2 19 Nov 20:07:33 20:08:11 10° 274° (W) 20:08:50 437.475
EO-88 19 Nov 20:08:47 20:10:27 13° 61° (ENE) 20:12:08 145.990 - 145.960
STRAND 1 19 Nov 20:33:03 20:38:05 57° 290° (WNW) 20:43:04 437.568
AO-73 19 Nov 20:51:45 20:54:55 20° 268° (W) 20:58:04 145.935
AAUSAT CUBESAT 2 19 Nov 20:54:27 20:55:39 11° 273° (W) 20:56:52 437.432
RS-15 19 Nov 20:59:00 21:11:19 67° 317° (NW) 21:23:28 29.354- 29.394
NO-84 19 Nov 21:03:00 21:07:03 45° 18° (NNE) 21:11:10 435.350 FM
FO-29 19 Nov 21:09:20 21:17:17 81° 104° (ESE) 21:24:54 435.910
Oscar 11 19 Nov 21:10:36 21:13:40 19° 269° (W) 21:16:44 .
ISS 19 Nov 21:18:17 21:19:48 13° 135° (SE) 21:21:18 437.550
SO-50 19 Nov 21:18:50 21:19:12 10° 107° (ESE) 21:19:34 436.795
UNISAT 6 19 Nov 21:25:25 21:28:52 23° 93° (E) 21:32:17 437.425
TIGRISAT 19 Nov 21:30:20 21:33:48 23° 93° (E) 21:37:14 435.000
O/OREOS (USA 219) 19 Nov 21:35:48 21:37:34 12° 39° (NE) 21:39:19 437.305
Max Valier Satellite 19 Nov 21:37:09 21:40:41 46° 261° (W) 21:44:14 145.860
EO-88 19 Nov 21:40:04 21:43:38 61° 258° (WSW) 21:47:14 145.990 - 145.960
DELFI C3 19 Nov 21:40:46 21:44:22 33° 264° (W) 21:48:01 145.870
ESTCUBE 1 19 Nov 22:03:11 22:07:05 30° 65° (ENE) 22:11:01 437.505/2401.250
LO-87 19 Nov 22:10:55 22:14:20 40° 71° (ENE) 22:17:45 145.935 - 145.965
SPROUT 19 Nov 22:11:53 22:12:54 11° 56° (NE) 22:13:54 437.525
nSIGHT-1 19 Nov 22:14:58 22:17:59 40° 148° (SSE) 22:21:02 .
STRAND 1 19 Nov 22:15:18 22:16:12 10° 310° (NW) 22:17:05 437.568
VELOX 1 19 Nov 22:34:27 22:36:30 13° 56° (ENE) 22:38:34 145.980
NO-84 19 Nov 22:40:23 22:44:35 59° 218° (SW) 22:48:46 435.350 FM
AIST 2D 19 Nov 22:46:49 22:49:16 18° 92° (E) 22:51:43 435.315
ISS 19 Nov 22:52:30 22:55:45 64° 153° (SSE) 22:59:00 437.550
SO-50 19 Nov 22:54:21 22:58:49 73° 126° (SE) 23:03:20 436.795
FO-29 19 Nov 22:55:04 23:01:31 29° 304° (NW) 23:07:52 435.910
PRISM 19 Nov 23:00:35 23:04:47 78° 104° (ESE) 23:08:56 437.425
UNISAT 6 19 Nov 23:01:43 23:05:45 39° 291° (WNW) 23:09:42 437.425
TIGRISAT 19 Nov 23:06:39 23:10:38 38° 291° (WNW) 23:14:34 435.000
O/OREOS (USA 219) 19 Nov 23:13:26 23:17:59 61° 61° (ENE) 23:22:28 437.305
EO-79 19 Nov 23:13:59 23:16:13 14° 89° (E) 23:18:27 145.935-145.965
RS-15 19 Nov 23:15:17 23:26:31 38° 348° (NNW) 23:37:24 29.354- 29.394
NANOSAT C BR1 19 Nov 23:18:34 23:20:45 14° 89° (E) 23:22:57 145.865
DX 1 19 Nov 23:26:49 23:28:09 11° 55° (NE) 23:29:29 434.975-435.025
POLYITAN 1 19 Nov 23:28:06 23:31:10 19° 92° (E) 23:34:12 437.675
ESTCUBE 1 19 Nov 23:39:47 23:43:49 33° 264° (W) 23:47:55 437.505/2401.250
SPROUT 19 Nov 23:43:44 23:48:02 77° 74° (ENE) 23:52:20 437.525
LO-87 19 Nov 23:45:33 23:47:55 16° 268° (W) 23:50:17 145.935 - 145.965
QB50P2 19 Nov 23:50:40 23:54:34 35° 97° (E) 23:58:26 145.880/145.840
nSIGHT-1 19 Nov 23:51:00 23:54:11 57° 347° (NNW) 23:57:22 .
PCSat 20 Nov 00:03:49 00:07:52 22° 108° (ESE) 00:11:57 145.827
VELOX 1 20 Nov 00:07:50 00:12:16 90° 75° (ENE) 00:16:46 145.980
BUGSAT 1 20 Nov 00:10:40 00:11:10 10° 87° (E) 00:11:40 437.445
UKube-1 20 Nov 00:10:57 00:13:56 19° 60° (ENE) 00:16:57 .
AIST 2D 20 Nov 00:19:19 00:22:34 35° 290° (WNW) 00:25:48 435.315
NO-84 20 Nov 00:19:41 00:21:13 12° 236° (SW) 00:22:44 435.350 FM
ISS 20 Nov 00:29:09 00:32:20 48° 352° (N) 00:35:32 437.550
50 SAT 20 Nov 00:31:12 00:34:13 37° 71° (ENE) 00:37:16 437.505
SO-50 20 Nov 00:36:04 00:39:44 24° 327° (NNW) 00:43:27 436.795
PRISM 20 Nov 00:37:22 00:39:29 14° 302° (WNW) 00:41:34 437.425
DUCHIFAT 1 20 Nov 00:43:12 00:47:24 88° 104° (ESE) 00:51:33 145.980
EO-79 20 Nov 00:48:14 00:52:24 65° 288° (WNW) 00:56:33 145.935-145.965
NANOSAT C BR1 20 Nov 00:52:44 00:56:55 65° 287° (WNW) 01:01:02 145.865
O/OREOS (USA 219) 20 Nov 00:53:54 00:56:55 18° 260° (W) 00:59:53 437.305
DX 1 20 Nov 00:59:12 01:03:34 77° 73° (ENE) 01:07:58 434.975-435.025
MOZHAYETS 4 20 Nov 01:02:29 01:04:35 13° 56° (ENE) 01:06:40
POLYITAN 1 20 Nov 01:03:09 01:07:10 46° 290° (WNW) 01:11:10 437.675
SPROUT 20 Nov 01:22:40 01:24:27 12° 272° (W) 01:26:13 437.525
QB50P2 20 Nov 01:26:44 01:30:13 26° 295° (WNW) 01:33:40 145.880/145.840
nSIGHT-1 20 Nov 01:27:36 01:30:43 46° 7° (N) 01:33:51 .
RS-15 20 Nov 01:31:26 01:42:50 43° 22° (NNE) 01:53:42 29.354- 29.394
Oscar 19 20 Nov 01:38:37 01:43:36 47° 99° (E) 01:48:34 437.125/150
BUGSAT 1 20 Nov 01:43:02 01:47:07 82° 287° (WNW) 01:51:08 437.445
UKube-1 20 Nov 01:45:19 01:49:34 57° 259° (W) 01:53:51 .
PCSat 20 Nov 01:45:22 01:50:46 69° 307° (NW) 01:56:13 145.827
VELOX 1 20 Nov 01:48:08 01:49:22 11° 273° (W) 01:50:37 145.980
Gurwin Techsat 1B 20 Nov 01:49:30 01:54:36 43° 98° (E) 01:59:38 435.225
BEESAT 20 Nov 01:59:09 02:03:26 34° 65° (ENE) 02:07:44 436.000
50 SAT 20 Nov 02:04:38 02:06:30 14° 268° (W) 02:08:23 437.505
ISS 20 Nov 02:05:54 02:09:08 55° 12° (NNE) 02:12:21 437.550
ITUPSAT 1 20 Nov 02:07:26 02:11:52 40° 67° (ENE) 02:16:20 437.325
SO-50 20 Nov 02:20:28 02:21:49 11° 351° (N) 02:23:10 436.795
DUCHIFAT 1 20 Nov 02:20:48 02:22:25 12° 303° (WNW) 02:24:01 145.980
MOZHAYETS 4 20 Nov 02:36:28 02:41:03 87° 71° (ENE) 02:45:38
DX 1 20 Nov 02:38:20 02:40:17 13° 272° (W) 02:42:16 434.975-435.025
CUBESAT XI-V 20 Nov 02:44:04 02:47:59 28° 65° (ENE) 02:51:55 437.345
nSIGHT-1 20 Nov 03:03:53 03:07:05 69° 206° (SSW) 03:10:15 .
KKS-1 20 Nov 03:06:42 03:09:04 14° 57° (ENE) 03:11:26 437.445
BEESAT 3 20 Nov 03:07:31 03:11:03 31° 118° (ESE) 03:14:36 437.485
M-CUBED/EXP-1 PRIME 20 Nov 03:08:18 03:12:43 56° 106° (ESE) 03:17:16 437.505
Oscar 19 20 Nov 03:18:22 03:22:42 28° 298° (WNW) 03:27:03 437.125/150
BUGSAT 1 20 Nov 03:21:04 03:21:45 10° 304° (NW) 03:22:26 437.445
